Year,Month,Day,Hour,Minute,Value (Times are PST for temperature in C)
2013,10,15,00,00,6.10
2013,10,15,00,01,6.10
2013,10,15,00,02,6.10
2013,10,15,00,03,6.10
2013,10,15,00,04,6.10
2013,10,15,00,05,6.10
2013,10,15,00,06,6.10
2013,10,15,00,07,6.10
2013,10,15,00,08,6.10
2013,10,15,00,09,6.10
2013,10,15,00,10,6.10
2013,10,15,00,11,6.10
2013,10,15,00,12,6.10
2013,10,15,00,13,6.10
2013,10,15,00,14,6.10
2013,10,15,00,15,6.00
2013,10,15,00,16,6.00
2013,10,15,00,17,6.00
2013,10,15,00,18,5.90
2013,10,15,00,19,5.90
2013,10,15,00,20,5.90
2013,10,15,00,21,5.90
2013,10,15,00,22,6.00
2013,10,15,00,23,6.00
2013,10,15,00,24,6.00
2013,10,15,00,25,6.00
2013,10,15,00,26,6.00
2013,10,15,00,27,6.00
2013,10,15,00,28,5.90
2013,10,15,00,29,5.90
2013,10,15,00,30,5.80
2013,10,15,00,31,5.80
2013,10,15,00,32,5.80
2013,10,15,00,33,5.80
2013,10,15,00,34,5.80
2013,10,15,00,35,5.80
2013,10,15,00,36,5.80
2013,10,15,00,37,5.80
2013,10,15,00,38,5.80
2013,10,15,00,39,5.80
2013,10,15,00,40,5.80
2013,10,15,00,41,5.90
2013,10,15,00,42,5.90
2013,10,15,00,43,5.90
2013,10,15,00,44,5.90
2013,10,15,00,45,5.90
2013,10,15,00,46,5.90
2013,10,15,00,47,5.90
2013,10,15,00,48,5.90
2013,10,15,00,49,5.90
2013,10,15,00,50,5.90
2013,10,15,00,51,5.80
2013,10,15,00,52,5.80
2013,10,15,00,53,5.80
2013,10,15,00,54,5.80
2013,10,15,00,55,5.80
2013,10,15,00,56,5.80
2013,10,15,00,57,5.80
2013,10,15,00,58,5.80
2013,10,15,00,59,5.80
2013,10,15,01,00,5.80
2013,10,15,01,01,5.80
2013,10,15,01,02,5.80
2013,10,15,01,03,5.80
2013,10,15,01,04,5.90
2013,10,15,01,05,5.90
2013,10,15,01,06,5.90
2013,10,15,01,07,5.90
2013,10,15,01,08,6.00
2013,10,15,01,09,6.00
2013,10,15,01,10,6.00
2013,10,15,01,11,6.00
2013,10,15,01,12,6.00
2013,10,15,01,13,6.00
2013,10,15,01,14,6.00
2013,10,15,01,15,6.00
2013,10,15,01,16,5.90
2013,10,15,01,17,5.80
2013,10,15,01,18,5.80
2013,10,15,01,19,5.70
2013,10,15,01,20,5.70
2013,10,15,01,21,5.70
2013,10,15,01,22,5.70
2013,10,15,01,23,5.70
2013,10,15,01,24,5.60
2013,10,15,01,25,5.60
2013,10,15,01,26,5.60
2013,10,15,01,27,5.60
2013,10,15,01,28,5.60
2013,10,15,01,29,5.60
2013,10,15,01,30,5.60
2013,10,15,01,31,5.60
2013,10,15,01,32,5.60
2013,10,15,01,33,5.60
2013,10,15,01,34,5.60
2013,10,15,01,35,5.60
2013,10,15,01,36,5.60
2013,10,15,01,37,5.60
2013,10,15,01,38,5.60
2013,10,15,01,39,5.60
2013,10,15,01,40,5.60
2013,10,15,01,41,5.60
2013,10,15,01,42,5.70
2013,10,15,01,43,5.70
2013,10,15,01,44,5.70
2013,10,15,01,45,5.70
2013,10,15,01,46,5.70
2013,10,15,01,47,5.70
2013,10,15,01,48,5.70
2013,10,15,01,49,5.70
2013,10,15,01,50,5.80
2013,10,15,01,51,5.80
2013,10,15,01,52,5.80
2013,10,15,01,53,5.80
2013,10,15,01,54,5.80
2013,10,15,01,55,5.80
2013,10,15,01,56,5.80
2013,10,15,01,57,5.80
2013,10,15,01,58,5.80
2013,10,15,01,59,5.80
2013,10,15,02,00,5.80
2013,10,15,02,01,5.80
2013,10,15,02,02,5.80
2013,10,15,02,03,5.70
2013,10,15,02,04,5.70
2013,10,15,02,05,5.70
2013,10,15,02,06,5.70
2013,10,15,02,07,5.70
2013,10,15,02,08,5.70
2013,10,15,02,09,5.60
2013,10,15,02,10,5.60
2013,10,15,02,11,5.70
2013,10,15,02,12,5.70
2013,10,15,02,13,5.70
2013,10,15,02,14,5.70
2013,10,15,02,15,5.70
2013,10,15,02,16,5.70
2013,10,15,02,17,5.70
2013,10,15,02,18,5.70
2013,10,15,02,19,5.70
2013,10,15,02,20,5.70
2013,10,15,02,21,5.70
2013,10,15,02,22,5.70
2013,10,15,02,23,5.70
2013,10,15,02,24,5.70
2013,10,15,02,25,5.70
2013,10,15,02,26,5.60
2013,10,15,02,27,5.60
2013,10,15,02,28,5.60
2013,10,15,02,29,5.60
2013,10,15,02,30,5.60
2013,10,15,02,31,5.60
2013,10,15,02,32,5.60
2013,10,15,02,33,5.70
2013,10,15,02,34,5.60
2013,10,15,02,35,5.60
2013,10,15,02,36,5.60
2013,10,15,02,37,5.60
2013,10,15,02,38,5.60
2013,10,15,02,39,5.60
2013,10,15,02,40,5.60
2013,10,15,02,41,5.60
2013,10,15,02,42,5.60
2013,10,15,02,43,5.60
2013,10,15,02,44,5.60
2013,10,15,02,45,5.60
2013,10,15,02,46,5.60
2013,10,15,02,47,5.60
2013,10,15,02,48,5.60
2013,10,15,02,49,5.60
2013,10,15,02,50,5.60
2013,10,15,02,51,5.60
2013,10,15,02,52,5.60
2013,10,15,02,53,5.60
2013,10,15,02,54,5.50
2013,10,15,02,55,5.50
2013,10,15,02,56,5.50
2013,10,15,02,57,5.60
2013,10,15,02,58,5.60
2013,10,15,02,59,5.60
2013,10,15,03,00,5.60
2013,10,15,03,01,5.60
2013,10,15,03,02,5.60
2013,10,15,03,03,5.70
2013,10,15,03,04,5.60
2013,10,15,03,05,5.60
2013,10,15,03,06,5.60
2013,10,15,03,07,5.60
2013,10,15,03,08,5.60
2013,10,15,03,09,5.50
2013,10,15,03,10,5.50
2013,10,15,03,11,5.50
2013,10,15,03,12,5.50
2013,10,15,03,13,5.50
2013,10,15,03,14,5.50
2013,10,15,03,15,5.50
2013,10,15,03,16,5.60
2013,10,15,03,17,5.60
2013,10,15,03,18,5.60
2013,10,15,03,19,5.60
2013,10,15,03,20,5.60
2013,10,15,03,21,5.60
2013,10,15,03,22,5.60
2013,10,15,03,23,5.60
2013,10,15,03,24,5.60
2013,10,15,03,25,5.60
2013,10,15,03,26,5.60
2013,10,15,03,27,5.60
2013,10,15,03,28,5.50
2013,10,15,03,29,5.50
2013,10,15,03,30,5.50
2013,10,15,03,31,5.40
2013,10,15,03,32,5.40
2013,10,15,03,33,5.40
2013,10,15,03,34,5.40
2013,10,15,03,35,5.40
2013,10,15,03,36,5.40
2013,10,15,03,37,5.30
2013,10,15,03,38,5.30
2013,10,15,03,39,5.30
2013,10,15,03,40,5.40
2013,10,15,03,41,5.40
2013,10,15,03,42,5.40
2013,10,15,03,43,5.40
2013,10,15,03,44,5.40
2013,10,15,03,45,5.40
2013,10,15,03,46,5.40
2013,10,15,03,47,5.30
2013,10,15,03,48,5.30
2013,10,15,03,49,5.20
2013,10,15,03,50,5.20
2013,10,15,03,51,5.20
2013,10,15,03,52,5.10
2013,10,15,03,53,5.10
2013,10,15,03,54,5.10
2013,10,15,03,55,5.10
2013,10,15,03,56,5.10
2013,10,15,03,57,5.10
2013,10,15,03,58,5.10
2013,10,15,03,59,5.10
2013,10,15,04,00,5.10
2013,10,15,04,01,5.20
2013,10,15,04,02,5.20
2013,10,15,04,03,5.20
2013,10,15,04,04,5.30
2013,10,15,04,05,5.30
2013,10,15,04,06,5.30
2013,10,15,04,07,5.30
2013,10,15,04,08,5.30
2013,10,15,04,09,5.30
2013,10,15,04,10,5.30
2013,10,15,04,11,5.30
2013,10,15,04,12,5.20
2013,10,15,04,13,5.20
2013,10,15,04,14,5.20
2013,10,15,04,15,5.20
2013,10,15,04,16,5.20
2013,10,15,04,17,5.10
2013,10,15,04,18,5.10
2013,10,15,04,19,5.10
2013,10,15,04,20,5.10
2013,10,15,04,21,5.10
2013,10,15,04,22,5.10
2013,10,15,04,23,5.10
2013,10,15,04,24,5.10
2013,10,15,04,25,5.10
2013,10,15,04,26,5.10
2013,10,15,04,27,5.10
2013,10,15,04,28,5.10
2013,10,15,04,29,5.10
2013,10,15,04,30,5.10
2013,10,15,04,31,5.10
2013,10,15,04,32,5.10
2013,10,15,04,33,5.10
2013,10,15,04,34,5.10
2013,10,15,04,35,5.10
2013,10,15,04,36,5.10
2013,10,15,04,37,5.10
2013,10,15,04,38,5.10
2013,10,15,04,39,5.10
2013,10,15,04,40,5.10
2013,10,15,04,41,5.00
2013,10,15,04,42,5.00
2013,10,15,04,43,5.00
2013,10,15,04,44,5.00
2013,10,15,04,45,5.00
2013,10,15,04,46,5.00
2013,10,15,04,47,4.90
2013,10,15,04,48,4.90
2013,10,15,04,49,4.80
2013,10,15,04,50,4.80
2013,10,15,04,51,4.80
2013,10,15,04,52,4.80
2013,10,15,04,53,4.80
2013,10,15,04,54,4.80
2013,10,15,04,55,4.80
2013,10,15,04,56,4.80
2013,10,15,04,57,4.80
2013,10,15,04,58,4.90
2013,10,15,04,59,4.90
2013,10,15,05,00,4.90
2013,10,15,05,01,4.80
2013,10,15,05,02,4.80
2013,10,15,05,03,4.80
2013,10,15,05,04,4.80
2013,10,15,05,05,4.80
2013,10,15,05,06,4.80
2013,10,15,05,07,4.70
2013,10,15,05,08,4.70
2013,10,15,05,09,4.70
2013,10,15,05,10,4.60
2013,10,15,05,11,4.60
2013,10,15,05,12,4.60
2013,10,15,05,13,4.60
2013,10,15,05,14,4.60
2013,10,15,05,15,4.60
2013,10,15,05,16,4.60
2013,10,15,05,17,4.60
2013,10,15,05,18,4.60
2013,10,15,05,19,4.60
2013,10,15,05,20,4.60
2013,10,15,05,21,4.60
2013,10,15,05,22,4.60
2013,10,15,05,23,4.60
2013,10,15,05,24,4.60
2013,10,15,05,25,4.60
2013,10,15,05,26,4.60
2013,10,15,05,27,4.60
2013,10,15,05,28,4.60
2013,10,15,05,29,4.70
2013,10,15,05,30,4.70
2013,10,15,05,31,4.70
2013,10,15,05,32,4.70
2013,10,15,05,33,4.70
2013,10,15,05,34,4.80
2013,10,15,05,35,4.80
2013,10,15,05,36,4.90
2013,10,15,05,37,4.90
2013,10,15,05,38,4.90
2013,10,15,05,39,4.90
2013,10,15,05,40,4.90
2013,10,15,05,41,5.00
2013,10,15,05,42,5.00
2013,10,15,05,43,4.90
2013,10,15,05,44,4.90
2013,10,15,05,45,4.90
2013,10,15,05,46,4.90
2013,10,15,05,47,4.90
2013,10,15,05,48,4.90
2013,10,15,05,49,4.80
2013,10,15,05,50,4.80
2013,10,15,05,51,4.80
2013,10,15,05,52,4.80
2013,10,15,05,53,4.80
2013,10,15,05,54,4.80
2013,10,15,05,55,4.80
2013,10,15,05,56,4.80
2013,10,15,05,57,4.80
2013,10,15,05,58,4.80
2013,10,15,05,59,4.80
2013,10,15,06,00,4.80
2013,10,15,06,01,4.80
2013,10,15,06,02,4.80
2013,10,15,06,03,4.90
2013,10,15,06,04,4.90
2013,10,15,06,05,4.90
2013,10,15,06,06,4.90
2013,10,15,06,07,4.90
2013,10,15,06,08,4.90
2013,10,15,06,09,4.90
2013,10,15,06,10,4.90
2013,10,15,06,11,4.80
2013,10,15,06,12,4.80
2013,10,15,06,13,4.90
2013,10,15,06,14,4.90
2013,10,15,06,15,4.90
2013,10,15,06,16,4.90
2013,10,15,06,17,5.00
2013,10,15,06,18,5.00
2013,10,15,06,19,5.00
2013,10,15,06,20,5.10
2013,10,15,06,21,5.10
2013,10,15,06,22,5.10
2013,10,15,06,23,5.20
2013,10,15,06,24,5.20
2013,10,15,06,25,5.20
2013,10,15,06,26,5.20
2013,10,15,06,27,5.20
2013,10,15,06,28,5.20
2013,10,15,06,29,5.20
2013,10,15,06,30,5.20
2013,10,15,06,31,5.20
2013,10,15,06,32,5.30
2013,10,15,06,33,5.30
2013,10,15,06,34,5.30
2013,10,15,06,35,5.30
2013,10,15,06,36,5.30
2013,10,15,06,37,5.40
2013,10,15,06,38,5.40
2013,10,15,06,39,5.40
2013,10,15,06,40,5.40
2013,10,15,06,41,5.40
2013,10,15,06,42,5.40
2013,10,15,06,43,5.40
2013,10,15,06,44,5.40
2013,10,15,06,45,5.40
2013,10,15,06,46,5.40
2013,10,15,06,47,5.50
2013,10,15,06,48,5.50
2013,10,15,06,49,5.50
2013,10,15,06,50,5.50
2013,10,15,06,51,5.50
2013,10,15,06,52,5.50
2013,10,15,06,53,5.50
2013,10,15,06,54,5.50
2013,10,15,06,55,5.50
2013,10,15,06,56,5.40
2013,10,15,06,57,5.40
2013,10,15,06,58,5.40
2013,10,15,06,59,5.40
2013,10,15,07,00,5.40
2013,10,15,07,01,5.30
2013,10,15,07,02,5.30
2013,10,15,07,03,5.30
2013,10,15,07,04,5.30
2013,10,15,07,05,5.30
2013,10,15,07,06,5.30
2013,10,15,07,07,5.30
2013,10,15,07,08,5.30
2013,10,15,07,09,5.30
2013,10,15,07,10,5.30
2013,10,15,07,11,5.30
2013,10,15,07,12,5.30
2013,10,15,07,13,5.30
2013,10,15,07,14,5.30
2013,10,15,07,15,5.30
2013,10,15,07,16,5.30
2013,10,15,07,17,5.30
2013,10,15,07,18,5.30
2013,10,15,07,19,5.30
2013,10,15,07,20,5.30
2013,10,15,07,21,5.30
2013,10,15,07,22,5.30
2013,10,15,07,23,5.30
2013,10,15,07,24,5.30
2013,10,15,07,25,5.20
2013,10,15,07,26,5.20
2013,10,15,07,27,5.20
2013,10,15,07,28,5.20
2013,10,15,07,29,5.20
2013,10,15,07,30,5.20
2013,10,15,07,31,5.20
2013,10,15,07,32,5.30
2013,10,15,07,33,5.30
2013,10,15,07,34,5.30
2013,10,15,07,35,5.30
2013,10,15,07,36,5.30
2013,10,15,07,37,5.30
2013,10,15,07,38,5.40
2013,10,15,07,39,5.40
2013,10,15,07,40,5.40
2013,10,15,07,41,5.30
2013,10,15,07,42,5.30
2013,10,15,07,43,5.30
2013,10,15,07,44,5.30
2013,10,15,07,45,5.20
2013,10,15,07,46,5.20
2013,10,15,07,47,5.20
2013,10,15,07,48,5.20
2013,10,15,07,49,5.20
2013,10,15,07,50,5.20
2013,10,15,07,51,5.20
2013,10,15,07,52,5.20
2013,10,15,07,53,5.20
2013,10,15,07,54,5.20
2013,10,15,07,55,5.20
2013,10,15,07,56,5.20
2013,10,15,07,57,5.20
2013,10,15,07,58,5.20
2013,10,15,07,59,5.20
2013,10,15,08,00,5.20
2013,10,15,08,01,5.20
2013,10,15,08,02,5.20
2013,10,15,08,03,5.20
2013,10,15,08,04,5.20
2013,10,15,08,05,5.20
2013,10,15,08,06,5.20
2013,10,15,08,07,5.20
2013,10,15,08,08,5.20
2013,10,15,08,09,5.20
2013,10,15,08,10,5.20
2013,10,15,08,11,5.30
2013,10,15,08,12,5.30
2013,10,15,08,13,5.30
2013,10,15,08,14,5.30
2013,10,15,08,15,5.30
2013,10,15,08,16,5.30
2013,10,15,08,17,5.30
2013,10,15,08,18,5.40
2013,10,15,08,19,5.40
2013,10,15,08,20,5.40
2013,10,15,08,21,5.30
2013,10,15,08,22,5.30
2013,10,15,08,23,5.30
2013,10,15,08,24,5.30
2013,10,15,08,25,5.30
2013,10,15,08,26,5.30
2013,10,15,08,27,5.40
2013,10,15,08,28,5.40
2013,10,15,08,29,5.40
2013,10,15,08,30,5.40
2013,10,15,08,31,5.40
2013,10,15,08,32,5.40
2013,10,15,08,33,5.50
2013,10,15,08,34,5.50
2013,10,15,08,35,5.50
2013,10,15,08,36,5.50
2013,10,15,08,37,5.50
2013,10,15,08,38,5.50
2013,10,15,08,39,5.60
2013,10,15,08,40,5.60
2013,10,15,08,41,5.60
2013,10,15,08,42,5.60
2013,10,15,08,43,5.60
2013,10,15,08,44,5.60
2013,10,15,08,45,5.60
2013,10,15,08,46,5.70
2013,10,15,08,47,5.70
2013,10,15,08,48,5.70
2013,10,15,08,49,5.70
2013,10,15,08,50,5.80
2013,10,15,08,51,5.80
2013,10,15,08,52,5.80
2013,10,15,08,53,5.80
2013,10,15,08,54,5.90
2013,10,15,08,55,6.00
2013,10,15,08,56,6.00
2013,10,15,08,57,6.10
2013,10,15,08,58,6.10
2013,10,15,08,59,6.20
2013,10,15,09,00,6.30
2013,10,15,09,01,6.40
2013,10,15,09,02,6.50
2013,10,15,09,03,6.60
2013,10,15,09,04,6.70
2013,10,15,09,05,6.90
2013,10,15,09,06,7.00
2013,10,15,09,07,7.20
2013,10,15,09,08,7.30
2013,10,15,09,09,7.40
2013,10,15,09,10,7.50
2013,10,15,09,11,7.70
2013,10,15,09,12,7.80
2013,10,15,09,13,8.00
2013,10,15,09,14,8.10
2013,10,15,09,15,8.10
2013,10,15,09,16,8.20
2013,10,15,09,17,8.30
2013,10,15,09,18,8.40
2013,10,15,09,19,8.50
2013,10,15,09,20,8.50
2013,10,15,09,21,8.50
2013,10,15,09,22,8.60
2013,10,15,09,23,8.60
2013,10,15,09,24,8.60
2013,10,15,09,25,8.60
2013,10,15,09,26,8.60
2013,10,15,09,27,8.60
2013,10,15,09,28,8.70
2013,10,15,09,29,8.70
2013,10,15,09,30,8.70
2013,10,15,09,31,8.80
2013,10,15,09,32,8.80
2013,10,15,09,33,8.90
2013,10,15,09,34,8.90
2013,10,15,09,35,9.00
2013,10,15,09,36,9.10
2013,10,15,09,37,9.20
2013,10,15,09,38,9.20
2013,10,15,09,39,9.30
2013,10,15,09,40,9.30
2013,10,15,09,41,9.40
2013,10,15,09,42,9.50
2013,10,15,09,43,9.50
2013,10,15,09,44,9.60
2013,10,15,09,45,9.70
2013,10,15,09,46,9.70
2013,10,15,09,47,9.80
2013,10,15,09,48,9.90
2013,10,15,09,49,10.00
2013,10,15,09,50,10.10
2013,10,15,09,51,10.20
2013,10,15,09,52,10.20
2013,10,15,09,53,10.30
2013,10,15,09,54,10.30
2013,10,15,09,55,10.40
2013,10,15,09,56,10.30
2013,10,15,09,57,10.40
2013,10,15,09,58,10.40
2013,10,15,09,59,10.40
2013,10,15,10,00,10.40
2013,10,15,10,01,10.50
2013,10,15,10,02,10.50
2013,10,15,10,03,10.50
2013,10,15,10,04,10.60
2013,10,15,10,05,10.60
2013,10,15,10,06,10.60
2013,10,15,10,07,10.70
2013,10,15,10,08,10.70
2013,10,15,10,09,10.80
2013,10,15,10,10,10.80
2013,10,15,10,11,10.90
2013,10,15,10,12,11.00
2013,10,15,10,13,11.00
2013,10,15,10,14,11.10
2013,10,15,10,15,11.10
2013,10,15,10,16,11.20
2013,10,15,10,17,11.20
2013,10,15,10,18,11.30
2013,10,15,10,19,11.30
2013,10,15,10,20,11.30
2013,10,15,10,21,11.40
2013,10,15,10,22,11.40
2013,10,15,10,23,11.40
2013,10,15,10,24,11.40
2013,10,15,10,25,11.40
2013,10,15,10,26,11.50
2013,10,15,10,27,11.50
2013,10,15,10,28,11.60
2013,10,15,10,29,11.60
2013,10,15,10,30,11.70
2013,10,15,10,31,11.70
2013,10,15,10,32,11.80
2013,10,15,10,33,11.90
2013,10,15,10,34,11.90
2013,10,15,10,35,12.00
2013,10,15,10,36,12.00
2013,10,15,10,37,12.10
2013,10,15,10,38,12.10
2013,10,15,10,39,12.10
2013,10,15,10,40,12.20
2013,10,15,10,41,12.20
2013,10,15,10,42,12.30
2013,10,15,10,43,12.30
2013,10,15,10,44,12.30
2013,10,15,10,45,12.30
2013,10,15,10,46,12.40
2013,10,15,10,47,12.50
2013,10,15,10,48,12.50
2013,10,15,10,49,12.60
2013,10,15,10,50,12.60
2013,10,15,10,51,12.60
2013,10,15,10,52,12.60
2013,10,15,10,53,12.70
2013,10,15,10,54,12.70
2013,10,15,10,55,12.80
2013,10,15,10,56,12.80
2013,10,15,10,57,12.90
2013,10,15,10,58,12.90
2013,10,15,10,59,12.90
2013,10,15,11,00,12.90
2013,10,15,11,01,12.90
2013,10,15,11,02,12.90
2013,10,15,11,03,12.90
2013,10,15,11,04,12.90
2013,10,15,11,05,12.90
2013,10,15,11,06,12.90
2013,10,15,11,07,12.90
2013,10,15,11,08,12.90
2013,10,15,11,09,13.00
2013,10,15,11,10,13.00
2013,10,15,11,11,13.00
2013,10,15,11,12,13.00
2013,10,15,11,13,13.00
2013,10,15,11,14,13.00
2013,10,15,11,15,12.90
2013,10,15,11,16,12.90
2013,10,15,11,17,12.90
2013,10,15,11,18,12.90
2013,10,15,11,19,12.90
2013,10,15,11,20,13.00
2013,10,15,11,21,13.00
2013,10,15,11,22,13.10
2013,10,15,11,23,13.20
2013,10,15,11,24,13.20
2013,10,15,11,25,13.30
2013,10,15,11,26,13.40
2013,10,15,11,27,13.40
2013,10,15,11,28,13.40
2013,10,15,11,29,13.50
2013,10,15,11,30,13.50
2013,10,15,11,31,13.40
2013,10,15,11,32,13.50
2013,10,15,11,33,13.50
2013,10,15,11,34,13.60
2013,10,15,11,35,13.60
2013,10,15,11,36,13.60
2013,10,15,11,37,13.70
2013,10,15,11,38,13.70
2013,10,15,11,39,13.80
2013,10,15,11,40,13.80
2013,10,15,11,41,13.80
2013,10,15,11,42,13.70
2013,10,15,11,43,13.70
2013,10,15,11,44,13.70
2013,10,15,11,45,13.70
2013,10,15,11,46,13.70
2013,10,15,11,47,13.70
2013,10,15,11,48,13.70
2013,10,15,11,49,13.70
2013,10,15,11,50,13.70
2013,10,15,11,51,13.80
2013,10,15,11,52,13.80
2013,10,15,11,53,13.80
2013,10,15,11,54,13.80
2013,10,15,11,55,13.80
2013,10,15,11,56,13.80
2013,10,15,11,57,13.80
2013,10,15,11,58,13.80
2013,10,15,11,59,13.80
2013,10,15,12,00,13.80
2013,10,15,12,01,13.80
2013,10,15,12,02,13.80
2013,10,15,12,03,13.90
2013,10,15,12,04,13.90
2013,10,15,12,05,13.90
2013,10,15,12,06,14.00
2013,10,15,12,07,14.00
2013,10,15,12,08,14.10
2013,10,15,12,09,14.10
2013,10,15,12,10,14.10
2013,10,15,12,11,14.10
2013,10,15,12,12,14.00
2013,10,15,12,13,14.00
2013,10,15,12,14,14.00
2013,10,15,12,15,14.00
2013,10,15,12,16,14.00
2013,10,15,12,17,14.00
2013,10,15,12,18,13.90
2013,10,15,12,19,13.90
2013,10,15,12,20,13.90
2013,10,15,12,21,13.80
2013,10,15,12,22,13.80
2013,10,15,12,23,13.70
2013,10,15,12,24,13.70
2013,10,15,12,25,13.70
2013,10,15,12,26,13.70
2013,10,15,12,27,13.70
2013,10,15,12,28,13.60
2013,10,15,12,29,13.60
2013,10,15,12,30,13.60
2013,10,15,12,31,13.50
2013,10,15,12,32,13.50
2013,10,15,12,33,13.50
2013,10,15,12,34,13.40
2013,10,15,12,35,13.40
2013,10,15,12,36,13.40
2013,10,15,12,37,13.40
2013,10,15,12,38,13.30
2013,10,15,12,39,13.30
2013,10,15,12,40,13.20
2013,10,15,12,41,13.20
2013,10,15,12,42,13.10
2013,10,15,12,43,13.10
2013,10,15,12,44,13.10
2013,10,15,12,45,13.10
2013,10,15,12,46,13.00
2013,10,15,12,47,13.00
2013,10,15,12,48,13.00
2013,10,15,12,49,13.00
2013,10,15,12,50,13.10
2013,10,15,12,51,13.10
2013,10,15,12,52,13.10
2013,10,15,12,53,13.20
2013,10,15,12,54,13.20
2013,10,15,12,55,13.20
2013,10,15,12,56,13.30
2013,10,15,12,57,13.30
2013,10,15,12,58,13.30
2013,10,15,12,59,13.30
2013,10,15,13,00,13.40
2013,10,15,13,01,13.40
2013,10,15,13,02,13.40
2013,10,15,13,03,13.30
2013,10,15,13,04,13.30
2013,10,15,13,05,13.30
2013,10,15,13,06,13.30
2013,10,15,13,07,13.30
2013,10,15,13,08,13.20
2013,10,15,13,09,13.20
2013,10,15,13,10,13.20
2013,10,15,13,11,13.20
2013,10,15,13,12,13.30
2013,10,15,13,13,13.30
2013,10,15,13,14,13.30
2013,10,15,13,15,13.30
2013,10,15,13,16,13.30
2013,10,15,13,17,13.30
2013,10,15,13,18,13.30
2013,10,15,13,19,13.30
2013,10,15,13,20,13.30
2013,10,15,13,21,13.30
2013,10,15,13,22,13.30
2013,10,15,13,23,13.20
2013,10,15,13,24,13.20
2013,10,15,13,25,13.30
2013,10,15,13,26,13.30
2013,10,15,13,27,13.30
2013,10,15,13,28,13.30
2013,10,15,13,29,13.30
2013,10,15,13,30,13.30
2013,10,15,13,31,13.30
2013,10,15,13,32,13.30
2013,10,15,13,33,13.30
2013,10,15,13,34,13.30
2013,10,15,13,35,13.30
2013,10,15,13,36,13.20
2013,10,15,13,37,13.20
2013,10,15,13,38,13.20
2013,10,15,13,39,13.20
2013,10,15,13,40,13.20
2013,10,15,13,41,13.20
2013,10,15,13,42,13.20
2013,10,15,13,43,13.30
2013,10,15,13,44,13.20
2013,10,15,13,45,13.30
2013,10,15,13,46,13.30
2013,10,15,13,47,13.30
2013,10,15,13,48,13.30
2013,10,15,13,49,13.30
2013,10,15,13,50,13.30
2013,10,15,13,51,13.30
2013,10,15,13,52,13.30
2013,10,15,13,53,13.30
2013,10,15,13,54,13.30
2013,10,15,13,55,13.30
2013,10,15,13,56,13.30
2013,10,15,13,57,13.30
2013,10,15,13,58,13.30
2013,10,15,13,59,13.30
2013,10,15,14,00,13.30
2013,10,15,14,01,13.30
2013,10,15,14,02,13.30
2013,10,15,14,03,13.30
2013,10,15,14,04,13.30
2013,10,15,14,05,13.30
2013,10,15,14,06,13.30
2013,10,15,14,07,13.30
2013,10,15,14,08,13.30
2013,10,15,14,09,13.30
2013,10,15,14,10,13.30
2013,10,15,14,11,13.30
2013,10,15,14,12,13.30
2013,10,15,14,13,13.30
2013,10,15,14,14,13.40
2013,10,15,14,15,13.40
2013,10,15,14,16,13.40
2013,10,15,14,17,13.40
2013,10,15,14,18,13.50
2013,10,15,14,19,13.50
2013,10,15,14,20,13.50
2013,10,15,14,21,13.60
2013,10,15,14,22,13.60
2013,10,15,14,23,13.60
2013,10,15,14,24,13.60
2013,10,15,14,25,13.60
2013,10,15,14,26,13.60
2013,10,15,14,27,13.60
2013,10,15,14,28,13.70
2013,10,15,14,29,13.70
2013,10,15,14,30,13.70
2013,10,15,14,31,13.80
2013,10,15,14,32,13.80
2013,10,15,14,33,13.80
2013,10,15,14,34,13.90
2013,10,15,14,35,13.90
2013,10,15,14,36,14.00
2013,10,15,14,37,14.00
2013,10,15,14,38,14.10
2013,10,15,14,39,14.10
2013,10,15,14,40,14.20
2013,10,15,14,41,14.20
2013,10,15,14,42,14.20
2013,10,15,14,43,14.20
2013,10,15,14,44,14.20
2013,10,15,14,45,14.20
2013,10,15,14,46,14.20
2013,10,15,14,47,14.20
2013,10,15,14,48,14.20
2013,10,15,14,49,14.20
2013,10,15,14,50,14.20
2013,10,15,14,51,14.20
2013,10,15,14,52,14.20
2013,10,15,14,53,14.20
2013,10,15,14,54,14.20
2013,10,15,14,55,14.20
2013,10,15,14,56,14.20
2013,10,15,14,57,14.20
2013,10,15,14,58,14.20
2013,10,15,14,59,14.20
2013,10,15,15,00,14.20
2013,10,15,15,01,14.20
2013,10,15,15,02,14.20
2013,10,15,15,03,14.30
2013,10,15,15,04,14.30
2013,10,15,15,05,14.30
2013,10,15,15,06,14.30
2013,10,15,15,07,14.30
2013,10,15,15,08,14.30
2013,10,15,15,09,14.30
2013,10,15,15,10,14.30
2013,10,15,15,11,14.30
2013,10,15,15,12,14.20
2013,10,15,15,13,14.20
2013,10,15,15,14,14.20
2013,10,15,15,15,14.20
2013,10,15,15,16,14.20
2013,10,15,15,17,14.20
2013,10,15,15,18,14.10
2013,10,15,15,19,14.10
2013,10,15,15,20,14.10
2013,10,15,15,21,14.00
2013,10,15,15,22,13.90
2013,10,15,15,23,13.90
2013,10,15,15,24,13.90
2013,10,15,15,25,13.90
2013,10,15,15,26,13.90
2013,10,15,15,27,13.80
2013,10,15,15,28,13.80
2013,10,15,15,29,13.80
2013,10,15,15,30,13.80
2013,10,15,15,31,13.80
2013,10,15,15,32,13.80
2013,10,15,15,33,13.70
2013,10,15,15,34,13.70
2013,10,15,15,35,13.70
2013,10,15,15,36,13.60
2013,10,15,15,37,13.60
2013,10,15,15,38,13.60
2013,10,15,15,39,13.60
2013,10,15,15,40,13.60
2013,10,15,15,41,13.60
2013,10,15,15,42,13.60
2013,10,15,15,43,13.60
2013,10,15,15,44,13.60
2013,10,15,15,45,13.60
2013,10,15,15,46,13.60
2013,10,15,15,47,13.60
2013,10,15,15,48,13.60
2013,10,15,15,49,13.60
2013,10,15,15,50,13.60
2013,10,15,15,51,13.60
2013,10,15,15,52,13.60
2013,10,15,15,53,13.60
2013,10,15,15,54,13.60
2013,10,15,15,55,13.60
2013,10,15,15,56,13.60
2013,10,15,15,57,13.60
2013,10,15,15,58,13.60
2013,10,15,15,59,13.70
2013,10,15,16,00,13.70
2013,10,15,16,01,13.70
2013,10,15,16,02,13.60
2013,10,15,16,03,13.60
2013,10,15,16,04,13.60
2013,10,15,16,05,13.60
2013,10,15,16,06,13.60
2013,10,15,16,07,13.60
2013,10,15,16,08,13.60
2013,10,15,16,09,13.60
2013,10,15,16,10,13.60
2013,10,15,16,11,13.50
2013,10,15,16,12,13.50
2013,10,15,16,13,13.50
2013,10,15,16,14,13.50
2013,10,15,16,15,13.40
2013,10,15,16,16,13.40
2013,10,15,16,17,13.40
2013,10,15,16,18,13.40
2013,10,15,16,19,13.30
2013,10,15,16,20,13.30
2013,10,15,16,21,13.30
2013,10,15,16,22,13.30
2013,10,15,16,23,13.30
2013,10,15,16,24,13.20
2013,10,15,16,25,13.20
2013,10,15,16,26,13.20
2013,10,15,16,27,13.20
2013,10,15,16,28,13.20
2013,10,15,16,29,13.20
2013,10,15,16,30,13.10
2013,10,15,16,31,13.10
2013,10,15,16,32,13.10
2013,10,15,16,33,13.10
2013,10,15,16,34,13.00
2013,10,15,16,35,13.00
2013,10,15,16,36,13.00
2013,10,15,16,37,13.00
2013,10,15,16,38,13.00
2013,10,15,16,39,12.90
2013,10,15,16,40,12.90
2013,10,15,16,41,12.90
2013,10,15,16,42,12.90
2013,10,15,16,43,12.90
2013,10,15,16,44,12.90
2013,10,15,16,45,12.90
2013,10,15,16,46,12.90
2013,10,15,16,47,12.90
2013,10,15,16,48,12.90
2013,10,15,16,49,12.90
2013,10,15,16,50,12.90
2013,10,15,16,51,12.90
2013,10,15,16,52,12.90
2013,10,15,16,53,12.90
2013,10,15,16,54,12.90
2013,10,15,16,55,12.90
2013,10,15,16,56,12.80
2013,10,15,16,57,12.80
2013,10,15,16,58,12.80
2013,10,15,16,59,12.80
2013,10,15,17,00,12.80
2013,10,15,17,01,12.80
2013,10,15,17,02,12.80
2013,10,15,17,03,12.80
2013,10,15,17,04,12.80
2013,10,15,17,05,12.80
2013,10,15,17,06,12.70
2013,10,15,17,07,12.70
2013,10,15,17,08,12.70
2013,10,15,17,09,12.70
2013,10,15,17,10,12.70
2013,10,15,17,11,12.70
2013,10,15,17,12,12.70
2013,10,15,17,13,12.60
2013,10,15,17,14,12.60
2013,10,15,17,15,12.60
2013,10,15,17,16,12.60
2013,10,15,17,17,12.60
2013,10,15,17,18,12.60
2013,10,15,17,19,12.60
2013,10,15,17,20,12.60
2013,10,15,17,21,12.60
2013,10,15,17,22,12.60
2013,10,15,17,23,12.60
2013,10,15,17,24,12.60
2013,10,15,17,25,12.60
2013,10,15,17,26,12.50
2013,10,15,17,27,12.50
2013,10,15,17,28,12.50
2013,10,15,17,29,12.50
2013,10,15,17,30,12.50
2013,10,15,17,31,12.50
2013,10,15,17,32,12.50
2013,10,15,17,33,12.50
2013,10,15,17,34,12.50
2013,10,15,17,35,12.40
2013,10,15,17,36,12.40
2013,10,15,17,37,12.40
2013,10,15,17,38,12.40
2013,10,15,17,39,12.40
2013,10,15,17,40,12.40
2013,10,15,17,41,12.30
2013,10,15,17,42,12.30
2013,10,15,17,43,12.30
2013,10,15,17,44,12.30
2013,10,15,17,45,12.30